Location: RyutenAO
(34.8939°N, 134.0022°E)
Time: 13:42:31
(UTC+09:00)

X-37B - Visible Passes

Search period start: 27 November 2021 00:00
Search period end: 07 December 2021 00:00
Orbit: 330 x 341 km, 45.0° (Epoch: 20 November)

Date Brightness Start Highest point End Pass type
(mag) Time Alt. Az. Time Alt. Az. Time Alt. Az.
27 Nov 1.9 05:19:27 25° SSW 05:19:27 25° SSW 05:21:15 10° SSE visible
03 Dec 3.3 18:53:36 10° SW 18:54:08 14° SSW 18:54:08 14° SSW visible
04 Dec 2.7 17:40:06 10° SSE 17:41:31 13° SE 17:42:46 11° ESE visible
04 Dec 4.0 19:13:55 10° WSW 19:14:01 11° WSW 19:14:01 11° WSW visible
05 Dec 1.0 17:59:02 10° SW 18:01:45 41° SE 18:02:35 31° E visible
06 Dec 0.6 18:19:21 10° WSW 18:22:09 56° NNW 18:22:20 55° N visible
